Regional Weather Roundup
Issued by NWS Jackson, KY

Home | Current Version | Previous Version | Graphics & Text | Print | Product List | Glossary On
Versions: 1 2 3 4 5 6 7 8 9 10 11 12 13 14 15 16 17 18 19 20 21 22 23 24 25 26 27 28 29 30 31 32 33 34 35 36 37 38 39 40 41 42 43 44 45 46 47 48 49 50
000
ASUS43 KJKL 250105
RWRJKL

EAST KENTUCKY HOURLY WEATHER ROUNDUP
NATIONAL WEATHER SERVICE JACKSON KY
900 PM EDT FRI OCT 24 2014

NOTE: "FAIR" INDICATES FEW OR NO CLOUDS BELOW 12,000 FEET WITH
NO SIGNIFICANT WEATHER AND/OR OBSTRUCTIONS TO VISIBILITY.

* THESE REPORTS ARE NOT UNDER NWS QUALITY CONTROL AND MAY NOT
  REPORT WEATHER SUCH AS PRECIPITATION AND FOG.

KYZ079-080-083-085-087-088-110-112-115-119-120-250200
...EASTERN KENTUCKY...

CITY           SKY/WX    TMP DP  RH WIND       PRES   REMARKS
JACKSON        CLEAR     56  41  57 CALM      30.07R
LONDON         CLEAR     52  43  71 CALM      30.07R
SOMERSET*      CLEAR     50  45  81 CALM      30.10R
MONTICELLO*    CLEAR     44  40  86 CALM      30.10R FOG
MIDDLESBORO*   CLEAR     48  43  81 CALM      30.08S
HARLAN APT*    CLEAR     50  41  71 CALM      30.07S
PIKEVILLE APT* CLEAR     54  41  62 CALM      30.07S
BIG SANDY*     CLEAR     51  43  74 CALM      30.06F
MOREHEAD APT*  CLEAR     55  39  54 CALM      30.09S
$$

KYZ035-036-041-042-044-050-067-078-099-250200
...CENTRAL KENTUCKY...

CITY           SKY/WX    TMP DP  RH WIND       PRES   REMARKS
MT STERLING*   CLEAR     45  41  87 SW3       30.08S
FLEMING/MASON* CLEAR     52  41  65 SW5       30.07S
DANVILLE*      PTCLDY    46  41  81 CALM      30.08S
RICHMOND*      PTCLDY    52  41  66 CALM      30.08R
LEXINGTON      PTCLDY    51  43  74 SE5       30.06F
FRANKFORT      PTCLDY    50  42  74 CALM      30.05F
$$

KYZ091>093-OHZ055-061-077-WVZ005-015-034-035-042-250200
...SOUTHERN OHIO/WEST VIRGINIA...

CITY           SKY/WX    TMP DP  RH WIND       PRES   REMARKS
COVINGTON      PTCLDY    55  40  56 W3        30.05R
COLUMBUS       PTCLDY    52  38  58 CALM      30.02S
DAYTON         MOCLDY    57  41  55 SW7       30.04S
WILMINGTON     PTCLDY    52  37  56 CALM      30.04S
HUNTINGTON     CLEAR     51  41  68 SW3       30.05R
CHARLESTON     CLEAR     47  42  83 SE5       30.05S
PINEVILLE*     CLEAR     43  43  99 MISG      30.13R
BECKLEY        CLEAR     45  36  70 CALM      30.07S
BLUEFIELD      CLEAR     47  36  65 W8        30.08S
$$

VAZ002-007-008-TNZ017-027-036-066-071-250200
...SOUTHWEST VIRGINIA/EAST TENNESSEE...

CITY           SKY/WX    TMP DP  RH WIND       PRES   REMARKS
WISE*          CLEAR     48  37  66 CALM      30.09S
JONESVILLE*    CLEAR     46  41  81 CALM      30.09S
ABINGDON*      CLEAR     47  40  78 CALM      30.08R
BRISTOL        CLEAR     47  42  83 CALM      30.07S
KNOXVILLE      PTCLDY    55  44  66 CALM      30.05S
OAK RIDGE      CLEAR     52  48  86 CALM      30.07S
CROSSVILLE     CLEAR     51  40  65 NW3       30.09S
NASHVILLE      PTCLDY    60  45  57 CALM      30.08S
$$

...KEY TO REMARKS...
VSB - VISIBILITY IN MILES
WCI - WIND CHILL INDEX
HX  - HEAT INDEX

$$



USA.gov is the U.S. government's official web portal to all federal, state and local government web resources and services.